Time,TemperatureF,DewpointF,PressureIn,WindDirection,WindDirectionDegrees,WindSpeedMPH,WindSpeedGustMPH,Humidity,HourlyPrecipIn,Conditions,Clouds,dailyrainin,SoftwareType,DateUTC
2013-08-04 00:02:00,54.9,49.8,29.68,SW,226,0.0,0.0,83,0.00,,---,0.00,VWS V13.00,2013-08-04 08:02:00,
2013-08-04 00:07:00,54.9,49.8,29.68,SW,215,0.0,0.0,83,0.00,,---,0.00,VWS V13.00,2013-08-04 08:07:00,
2013-08-04 00:12:00,54.9,49.8,29.68,WSW,249,0.0,0.0,83,0.00,,---,0.00,VWS V13.00,2013-08-04 08:12:00,
2013-08-04 00:17:00,54.9,49.8,29.68,West,260,0.0,0.0,83,0.00,,---,0.00,VWS V13.00,2013-08-04 08:17:00,
2013-08-04 00:22:00,54.7,49.6,29.68,WSW,258,0.0,0.0,83,0.00,,---,0.00,VWS V13.00,2013-08-04 08:22:00,
2013-08-04 00:27:00,54.5,49.5,29.68,SW,233,0.0,0.0,83,0.00,,---,0.00,VWS V13.00,2013-08-04 08:27:00,
2013-08-04 00:32:00,54.5,49.5,29.68,WSW,244,0.0,0.0,83,0.00,,---,0.00,VWS V13.00,2013-08-04 08:32:00,
2013-08-04 00:37:00,54.5,49.5,29.68,WSW,256,0.0,0.0,83,0.00,,---,0.00,VWS V13.00,2013-08-04 08:37:00,
2013-08-04 00:42:00,54.5,49.5,29.68,SW,222,0.0,0.0,83,0.00,,---,0.00,VWS V13.00,2013-08-04 08:42:00,
2013-08-04 00:47:00,54.5,49.5,29.68,West,265,0.0,0.0,83,0.00,,---,0.00,VWS V13.00,2013-08-04 08:47:00,
2013-08-04 00:52:00,54.5,49.5,29.68,SW,229,0.0,0.0,83,0.00,,---,0.00,VWS V13.00,2013-08-04 08:52:00,
2013-08-04 00:57:00,54.5,49.8,29.68,WSW,240,0.0,0.0,84,0.00,,---,0.00,VWS V13.00,2013-08-04 08:57:00,
2013-08-04 01:02:00,54.5,49.8,29.68,SW,225,0.0,0.0,84,0.00,,---,0.00,VWS V13.00,2013-08-04 09:02:00,
2013-08-04 01:07:00,54.5,49.8,29.68,West,269,0.0,0.0,84,0.00,,---,0.00,VWS V13.00,2013-08-04 09:07:00,
2013-08-04 01:12:00,54.5,49.8,29.68,SW,224,0.0,0.0,84,0.00,,---,0.00,VWS V13.00,2013-08-04 09:12:00,
2013-08-04 01:17:00,54.5,49.8,29.68,WSW,240,0.0,0.0,84,0.00,,---,0.00,VWS V13.00,2013-08-04 09:17:00,
2013-08-04 01:22:00,54.3,49.6,29.68,NNW,333,0.0,0.0,84,0.00,,---,0.00,VWS V13.00,2013-08-04 09:22:00,
2013-08-04 01:27:00,54.3,49.6,29.68,West,261,0.0,0.0,84,0.00,,---,0.00,VWS V13.00,2013-08-04 09:27:00,
2013-08-04 01:32:00,54.3,49.6,29.68,West,259,0.0,0.0,84,0.00,,---,0.00,VWS V13.00,2013-08-04 09:32:00,
2013-08-04 01:37:00,54.3,49.6,29.68,WSW,251,0.0,0.0,84,0.00,,---,0.00,VWS V13.00,2013-08-04 09:37:00,
2013-08-04 01:42:00,54.3,49.6,29.68,West,261,0.0,0.0,84,0.00,,---,0.00,VWS V13.00,2013-08-04 09:42:00,
2013-08-04 01:47:00,54.3,49.9,29.68,SSW,211,0.0,0.0,85,0.00,,---,0.00,VWS V13.00,2013-08-04 09:47:00,
2013-08-04 01:52:00,54.5,50.1,29.68,WSW,245,0.0,0.0,85,0.00,,---,0.00,VWS V13.00,2013-08-04 09:52:00,
2013-08-04 01:57:00,54.5,50.1,29.68,WSW,256,0.0,0.0,85,0.00,,---,0.00,VWS V13.00,2013-08-04 09:57:00,
2013-08-04 02:02:00,54.5,50.1,29.68,WSW,257,0.0,0.0,85,0.00,,---,0.00,VWS V13.00,2013-08-04 10:02:00,
2013-08-04 02:07:00,54.5,50.1,29.68,WSW,239,0.0,0.0,85,0.00,,---,0.00,VWS V13.00,2013-08-04 10:07:00,
2013-08-04 02:12:00,54.5,50.1,29.68,SW,227,0.0,0.0,85,0.00,,---,0.00,VWS V13.00,2013-08-04 10:12:00,
2013-08-04 02:17:00,54.5,50.1,29.68,WSW,239,0.0,0.0,85,0.00,,---,0.00,VWS V13.00,2013-08-04 10:17:00,
2013-08-04 02:22:00,54.3,49.9,29.68,WNW,293,0.0,0.0,85,0.00,,---,0.00,VWS V13.00,2013-08-04 10:22:00,
2013-08-04 02:27:00,54.3,49.9,29.68,WSW,244,0.0,0.0,85,0.00,,---,0.00,VWS V13.00,2013-08-04 10:27:00,
2013-08-04 02:32:00,54.3,49.9,29.68,West,261,0.0,0.0,85,0.00,,---,0.00,VWS V13.00,2013-08-04 10:32:00,
2013-08-04 02:37:00,54.1,49.7,29.68,SW,232,0.0,0.0,85,0.00,,---,0.00,VWS V13.00,2013-08-04 10:37:00,
2013-08-04 02:42:00,54.1,49.7,29.68,SW,218,0.0,0.0,85,0.00,,---,0.00,VWS V13.00,2013-08-04 10:42:00,
2013-08-04 02:47:00,54.1,49.7,29.68,WSW,251,0.0,0.0,85,0.00,,---,0.00,VWS V13.00,2013-08-04 10:47:00,
2013-08-04 02:52:00,54.1,49.7,29.68,West,272,0.0,0.0,85,0.00,,---,0.00,VWS V13.00,2013-08-04 10:52:00,
2013-08-04 02:57:00,54.1,49.7,29.68,West,266,0.0,0.0,85,0.00,,---,0.00,VWS V13.00,2013-08-04 10:57:00,
2013-08-04 03:02:00,54.1,49.7,29.68,NNW,338,0.0,0.0,85,0.00,,---,0.00,VWS V13.00,2013-08-04 11:02:00,
2013-08-04 03:07:00,54.1,50.0,29.68,NNW,337,0.0,0.0,86,0.00,,---,0.00,VWS V13.00,2013-08-04 11:07:00,
2013-08-04 03:12:00,54.1,50.0,29.68,NNW,332,0.0,0.0,86,0.00,,---,0.00,VWS V13.00,2013-08-04 11:12:00,
2013-08-04 03:17:00,54.1,50.0,29.68,WSW,257,0.0,0.0,86,0.00,,---,0.00,VWS V13.00,2013-08-04 11:17:00,
2013-08-04 03:22:00,54.1,50.0,29.68,SW,233,0.0,0.0,86,0.00,,---,0.00,VWS V13.00,2013-08-04 11:22:00,
2013-08-04 03:27:00,54.1,50.0,29.68,SW,233,0.0,0.0,86,0.00,,---,0.00,VWS V13.00,2013-08-04 11:27:00,
2013-08-04 03:32:00,54.1,50.0,29.68,WSW,256,0.0,0.0,86,0.00,,---,0.00,VWS V13.00,2013-08-04 11:32:00,
2013-08-04 03:37:00,54.1,50.0,29.68,WSW,254,0.0,0.0,86,0.00,,---,0.00,VWS V13.00,2013-08-04 11:37:00,
2013-08-04 03:42:00,54.0,49.9,29.68,North,357,0.0,0.0,86,0.00,,---,0.00,VWS V13.00,2013-08-04 11:42:00,
2013-08-04 03:47:00,54.0,49.9,29.68,WSW,243,0.0,0.0,86,0.00,,---,0.00,VWS V13.00,2013-08-04 11:47:00,
2013-08-04 03:52:00,54.0,49.9,29.68,WSW,241,0.0,0.0,86,0.00,,---,0.00,VWS V13.00,2013-08-04 11:52:00,
2013-08-04 03:57:00,54.0,49.9,29.68,WSW,241,0.0,0.0,86,0.00,,---,0.00,VWS V13.00,2013-08-04 11:57:00,
2013-08-04 04:02:00,54.0,49.9,29.68,South,178,0.0,0.0,86,0.00,,---,0.00,VWS V13.00,2013-08-04 12:02:00,
2013-08-04 04:07:00,54.0,49.9,29.68,SW,225,0.0,0.0,86,0.00,,---,0.00,VWS V13.00,2013-08-04 12:07:00,
2013-08-04 04:12:00,54.0,49.9,29.68,SW,228,0.0,0.0,86,0.00,,---,0.00,VWS V13.00,2013-08-04 12:12:00,
2013-08-04 04:17:00,54.0,49.9,29.68,WSW,243,0.0,0.0,86,0.00,,---,0.00,VWS V13.00,2013-08-04 12:17:00,
2013-08-04 04:22:00,54.0,49.9,29.68,SW,230,0.0,0.0,86,0.00,,---,0.00,VWS V13.00,2013-08-04 12:22:00,
2013-08-04 04:27:00,54.0,49.9,29.68,West,272,0.0,0.0,86,0.00,,---,0.00,VWS V13.00,2013-08-04 12:27:00,
2013-08-04 04:32:00,54.0,49.9,29.68,West,278,0.0,0.0,86,0.00,,---,0.00,VWS V13.00,2013-08-04 12:32:00,
2013-08-04 04:37:00,54.0,49.9,29.68,West,275,0.0,0.0,86,0.00,,---,0.00,VWS V13.00,2013-08-04 12:37:00,
2013-08-04 04:42:00,54.0,49.9,29.68,SSW,203,0.0,0.0,86,0.00,,---,0.00,VWS V13.00,2013-08-04 12:42:00,
2013-08-04 04:47:00,54.0,49.9,29.68,SSW,201,0.0,0.0,86,0.00,,---,0.00,VWS V13.00,2013-08-04 12:47:00,
2013-08-04 04:52:00,54.0,49.9,29.68,SSW,201,0.0,0.0,86,0.00,,---,0.00,VWS V13.00,2013-08-04 12:52:00,
2013-08-04 04:57:00,53.8,49.7,29.68,SSW,200,0.0,0.0,86,0.00,,---,0.00,VWS V13.00,2013-08-04 12:57:00,
2013-08-04 05:02:00,53.8,50.0,29.68,SSW,201,0.0,0.0,87,0.00,,---,0.00,VWS V13.00,2013-08-04 13:02:00,
2013-08-04 05:07:00,53.8,50.0,29.68,SSE,155,0.0,0.0,87,0.00,,---,0.00,VWS V13.00,2013-08-04 13:07:00,
2013-08-04 05:12:00,53.8,50.0,29.68,SSE,155,0.0,0.0,87,0.04,,---,0.04,VWS V13.00,2013-08-04 13:12:00,
2013-08-04 05:17:00,53.8,50.0,29.68,SW,216,0.0,0.0,87,0.04,,---,0.04,VWS V13.00,2013-08-04 13:17:00,
2013-08-04 05:22:00,53.8,50.0,29.68,SW,216,0.0,0.0,87,0.04,,---,0.04,VWS V13.00,2013-08-04 13:22:00,
2013-08-04 05:27:00,53.8,50.0,29.68,SW,216,0.0,0.0,87,0.04,,---,0.04,VWS V13.00,2013-08-04 13:27:00,
2013-08-04 05:32:00,53.8,50.0,29.68,SW,216,0.0,0.0,87,0.04,,---,0.04,VWS V13.00,2013-08-04 13:32:00,
2013-08-04 05:37:00,53.8,50.0,29.68,SW,216,0.0,0.0,87,0.04,,---,0.04,VWS V13.00,2013-08-04 13:37:00,
2013-08-04 05:42:00,53.8,50.0,29.68,SW,216,0.0,0.0,87,0.04,,---,0.04,VWS V13.00,2013-08-04 13:42:00,
2013-08-04 05:47:00,53.6,49.8,29.68,SW,216,0.0,0.0,87,0.04,,---,0.04,VWS V13.00,2013-08-04 13:47:00,
2013-08-04 05:52:00,53.6,49.8,29.68,SW,216,0.0,0.0,87,0.04,,---,0.04,VWS V13.00,2013-08-04 13:52:00,
2013-08-04 05:57:00,53.6,49.8,29.68,SW,216,0.0,0.0,87,0.04,,---,0.04,VWS V13.00,2013-08-04 13:57:00,
2013-08-04 06:02:00,53.6,49.8,29.68,SW,216,0.0,0.0,87,0.04,,---,0.04,VWS V13.00,2013-08-04 14:02:00,
2013-08-04 06:07:00,53.6,49.8,29.68,SW,216,0.0,0.0,87,0.04,,---,0.04,VWS V13.00,2013-08-04 14:07:00,
2013-08-04 06:12:00,53.6,49.8,29.68,SW,216,0.0,0.0,87,0.04,,---,0.04,VWS V13.00,2013-08-04 14:12:00,
2013-08-04 06:17:00,53.6,49.8,29.68,SW,216,0.0,0.0,87,0.04,,---,0.04,VWS V13.00,2013-08-04 14:17:00,
2013-08-04 06:22:00,53.6,49.8,29.71,SW,216,0.0,0.0,87,0.00,,---,0.04,VWS V13.00,2013-08-04 14:22:00,
2013-08-04 06:27:00,53.6,49.8,29.71,SW,216,0.0,0.0,87,0.00,,---,0.04,VWS V13.00,2013-08-04 14:27:00,
2013-08-04 06:32:00,53.6,49.8,29.71,SW,216,0.0,0.0,87,0.00,,---,0.04,VWS V13.00,2013-08-04 14:32:00,
2013-08-04 06:37:00,53.6,49.8,29.71,SW,216,0.0,0.0,87,0.00,,---,0.04,VWS V13.00,2013-08-04 14:37:00,
2013-08-04 06:42:00,53.6,49.8,29.71,SW,216,0.0,0.0,87,0.00,,---,0.04,VWS V13.00,2013-08-04 14:42:00,
2013-08-04 06:47:00,53.6,49.8,29.71,SW,216,0.0,0.0,87,0.00,,---,0.04,VWS V13.00,2013-08-04 14:47:00,
2013-08-04 06:52:00,53.6,49.8,29.71,SW,216,0.0,0.0,87,0.00,,---,0.04,VWS V13.00,2013-08-04 14:52:00,
2013-08-04 06:57:00,53.6,49.8,29.71,SW,216,0.0,0.0,87,0.00,,---,0.04,VWS V13.00,2013-08-04 14:57:00,
2013-08-04 07:02:00,53.6,49.8,29.71,SW,216,0.0,0.0,87,0.00,,---,0.04,VWS V13.00,2013-08-04 15:02:00,
2013-08-04 07:07:00,53.6,50.1,29.71,SW,216,0.0,0.0,88,0.00,,---,0.04,VWS V13.00,2013-08-04 15:07:00,
2013-08-04 07:12:00,53.6,50.1,29.71,SW,216,0.0,0.0,88,0.00,,---,0.04,VWS V13.00,2013-08-04 15:12:00,
2013-08-04 07:17:00,53.6,50.1,29.71,SW,216,0.0,0.0,88,0.00,,---,0.04,VWS V13.00,2013-08-04 15:17:00,
2013-08-04 07:22:00,53.6,50.1,29.71,SW,216,0.0,0.0,88,0.00,,---,0.04,VWS V13.00,2013-08-04 15:22:00,
2013-08-04 07:27:00,53.6,50.1,29.71,SW,216,0.0,0.0,88,0.00,,---,0.04,VWS V13.00,2013-08-04 15:27:00,
2013-08-04 07:32:00,54.1,50.7,29.71,SW,216,0.0,0.0,88,0.00,,---,0.04,VWS V13.00,2013-08-04 15:32:00,
2013-08-04 07:37:00,54.3,50.8,29.71,SW,216,0.0,0.0,88,0.00,,---,0.04,VWS V13.00,2013-08-04 15:37:00,
2013-08-04 07:42:00,54.3,50.8,29.71,SW,216,0.0,0.0,88,0.00,,---,0.04,VWS V13.00,2013-08-04 15:42:00,
2013-08-04 07:47:00,54.5,51.0,29.71,SW,216,0.0,0.0,88,0.00,,---,0.04,VWS V13.00,2013-08-04 15:47:00,
2013-08-04 07:52:00,54.5,51.0,29.71,SW,216,0.0,0.0,88,0.00,,---,0.04,VWS V13.00,2013-08-04 15:52:00,
2013-08-04 07:57:00,54.7,51.2,29.71,SW,216,0.0,0.0,88,0.00,,---,0.04,VWS V13.00,2013-08-04 15:57:00,
2013-08-04 08:02:00,54.9,51.4,29.71,SSW,193,0.0,0.0,88,0.00,,---,0.04,VWS V13.00,2013-08-04 16:02:00,
2013-08-04 08:07:00,55.0,51.6,29.71,SSW,199,0.0,0.0,88,0.00,,---,0.04,VWS V13.00,2013-08-04 16:07:00,
2013-08-04 08:12:00,54.9,51.4,29.71,SSW,206,0.0,0.0,88,0.00,,---,0.04,VWS V13.00,2013-08-04 16:12:00,
2013-08-04 08:17:00,55.0,51.6,29.71,SW,229,0.0,0.0,88,0.00,,---,0.04,VWS V13.00,2013-08-04 16:17:00,
2013-08-04 08:22:00,55.0,51.6,29.71,SW,222,0.0,0.0,88,0.00,,---,0.04,VWS V13.00,2013-08-04 16:22:00,
2013-08-04 08:27:00,55.0,51.6,29.71,SSW,209,0.0,0.0,88,0.00,,---,0.04,VWS V13.00,2013-08-04 16:27:00,
2013-08-04 08:32:00,55.2,52.0,29.71,SW,217,0.0,0.0,89,0.00,,---,0.04,VWS V13.00,2013-08-04 16:32:00,
2013-08-04 08:37:00,55.2,52.0,29.71,SSW,205,0.0,0.0,89,0.00,,---,0.04,VWS V13.00,2013-08-04 16:37:00,
2013-08-04 08:42:00,55.2,52.0,29.71,SW,225,0.0,0.0,89,0.00,,---,0.04,VWS V13.00,2013-08-04 16:42:00,
2013-08-04 08:47:00,55.2,52.0,29.71,SSW,211,0.0,0.0,89,0.00,,---,0.04,VWS V13.00,2013-08-04 16:47:00,
2013-08-04 08:52:00,55.2,52.0,29.71,SW,233,0.0,0.0,89,0.00,,---,0.04,VWS V13.00,2013-08-04 16:52:00,
2013-08-04 08:57:00,55.6,52.1,29.71,SSW,210,0.0,0.0,88,0.00,,---,0.04,VWS V13.00,2013-08-04 16:57:00,
2013-08-04 09:02:00,55.6,52.1,29.71,SW,214,0.0,0.0,88,0.00,,---,0.04,VWS V13.00,2013-08-04 17:02:00,
2013-08-04 09:07:00,55.6,52.4,29.71,WSW,242,0.0,0.0,89,0.00,,---,0.04,VWS V13.00,2013-08-04 17:07:00,
2013-08-04 09:12:00,55.6,52.4,29.71,SW,222,0.0,0.0,89,0.00,,---,0.04,VWS V13.00,2013-08-04 17:12:00,
2013-08-04 09:17:00,55.9,52.8,29.71,SW,223,0.0,0.0,89,0.00,,---,0.04,VWS V13.00,2013-08-04 17:17:00,
2013-08-04 09:22:00,55.9,52.8,29.71,SW,233,0.0,0.0,89,0.00,,---,0.04,VWS V13.00,2013-08-04 17:22:00,
2013-08-04 09:27:00,55.9,52.8,29.71,WSW,247,0.0,0.0,89,0.00,,---,0.04,VWS V13.00,2013-08-04 17:27:00,
2013-08-04 09:32:00,56.1,52.9,29.71,WSW,244,0.0,0.0,89,0.00,,---,0.04,VWS V13.00,2013-08-04 17:32:00,
2013-08-04 09:37:00,56.1,52.9,29.71,SSW,204,0.0,0.0,89,0.00,,---,0.04,VWS V13.00,2013-08-04 17:37:00,
2013-08-04 09:42:00,56.3,53.1,29.71,SSW,206,0.0,0.0,89,0.00,,---,0.04,VWS V13.00,2013-08-04 17:42:00,
2013-08-04 09:47:00,56.3,53.1,29.71,SW,233,0.0,0.0,89,0.00,,---,0.04,VWS V13.00,2013-08-04 17:47:00,
2013-08-04 09:52:00,56.3,53.1,29.71,WSW,241,0.0,0.0,89,0.00,,---,0.04,VWS V13.00,2013-08-04 17:52:00,
2013-08-04 09:57:00,56.3,53.1,29.71,SW,223,0.0,0.0,89,0.00,,---,0.04,VWS V13.00,2013-08-04 17:57:00,
2013-08-04 10:02:00,56.3,53.1,29.71,SSW,209,0.0,0.0,89,0.00,,---,0.04,VWS V13.00,2013-08-04 18:02:00,
2013-08-04 10:07:00,56.5,53.3,29.71,SW,225,0.0,0.0,89,0.00,,---,0.04,VWS V13.00,2013-08-04 18:07:00,
2013-08-04 10:12:00,56.5,53.3,29.71,SW,224,0.0,0.0,89,0.00,,---,0.04,VWS V13.00,2013-08-04 18:12:00,
2013-08-04 10:17:00,56.5,53.3,29.71,West,261,0.0,0.0,89,0.00,,---,0.04,VWS V13.00,2013-08-04 18:17:00,
2013-08-04 10:22:00,56.5,53.3,29.71,WSW,255,0.0,0.0,89,0.00,,---,0.04,VWS V13.00,2013-08-04 18:22:00,
2013-08-04 10:27:00,57.0,53.8,29.71,SW,219,0.0,0.0,89,0.00,,---,0.04,VWS V13.00,2013-08-04 18:27:00,
2013-08-04 10:32:00,57.2,54.0,29.71,SW,225,0.0,0.0,89,0.00,,---,0.04,VWS V13.00,2013-08-04 18:32:00,
2013-08-04 10:37:00,57.2,54.0,29.74,West,260,0.0,0.0,89,0.00,,---,0.04,VWS V13.00,2013-08-04 18:37:00,
2013-08-04 10:42:00,57.4,54.2,29.74,West,260,0.0,0.0,89,0.00,,---,0.04,VWS V13.00,2013-08-04 18:42:00,
2013-08-04 10:47:00,57.4,54.2,29.74,West,264,0.0,0.0,89,0.00,,---,0.04,VWS V13.00,2013-08-04 18:47:00,
2013-08-04 10:52:00,57.6,54.3,29.71,West,265,0.0,0.0,89,0.00,,---,0.04,VWS V13.00,2013-08-04 18:52:00,
2013-08-04 10:57:00,57.7,54.5,29.71,West,267,0.0,0.0,89,0.00,,---,0.04,VWS V13.00,2013-08-04 18:57:00,
2013-08-04 11:02:00,57.7,54.5,29.71,West,275,0.0,0.0,89,0.00,,---,0.04,VWS V13.00,2013-08-04 19:02:00,
2013-08-04 11:07:00,57.9,54.7,29.74,SW,226,0.0,0.0,89,0.00,,---,0.04,VWS V13.00,2013-08-04 19:07:00,
2013-08-04 11:13:00,57.9,54.7,29.74,West,281,0.0,0.0,89,0.00,,---,0.04,VWS V13.00,2013-08-04 19:13:00,
2013-08-04 11:17:00,57.9,54.7,29.74,WNW,300,0.0,0.0,89,0.00,,---,0.04,VWS V13.00,2013-08-04 19:17:00,
2013-08-04 11:22:00,58.1,54.9,29.74,SW,219,0.0,0.0,89,0.00,,---,0.04,VWS V13.00,2013-08-04 19:22:00,
2013-08-04 11:27:00,58.3,55.1,29.74,SW,216,0.0,0.0,89,0.00,,---,0.04,VWS V13.00,2013-08-04 19:27:00,
2013-08-04 11:33:00,58.5,55.2,29.74,SW,217,0.0,0.0,89,0.00,,---,0.04,VWS V13.00,2013-08-04 19:33:00,
2013-08-04 11:37:00,58.6,55.4,29.74,SW,234,0.0,0.0,89,0.00,,---,0.04,VWS V13.00,2013-08-04 19:37:00,
2013-08-04 11:43:00,58.6,55.4,29.74,WSW,250,0.0,0.0,89,0.00,,---,0.04,VWS V13.00,2013-08-04 19:43:00,
2013-08-04 11:48:00,59.0,55.5,29.74,SW,226,0.0,0.0,88,0.00,,---,0.04,VWS V13.00,2013-08-04 19:48:00,
2013-08-04 11:52:00,59.0,55.5,29.74,WSW,244,0.0,0.0,88,0.00,,---,0.04,VWS V13.00,2013-08-04 19:52:00,
2013-08-04 11:57:00,59.2,55.3,29.74,SW,217,0.0,0.0,87,0.00,,---,0.04,VWS V13.00,2013-08-04 19:57:00,
2013-08-04 12:03:00,59.4,55.5,29.74,SSW,207,0.0,0.0,87,0.00,,---,0.04,VWS V13.00,2013-08-04 20:03:00,
2013-08-04 12:08:00,59.4,55.5,29.74,WSW,245,0.0,0.0,87,0.00,,---,0.04,VWS V13.00,2013-08-04 20:08:00,
2013-08-04 12:13:00,59.7,55.8,29.74,SW,222,0.0,0.0,87,0.00,,---,0.04,VWS V13.00,2013-08-04 20:13:00,
2013-08-04 12:17:00,59.9,56.0,29.74,SW,217,0.0,0.0,87,0.00,,---,0.04,VWS V13.00,2013-08-04 20:17:00,
2013-08-04 12:22:00,60.3,56.1,29.74,West,265,0.0,0.0,86,0.00,,---,0.04,VWS V13.00,2013-08-04 20:22:00,
2013-08-04 12:28:00,60.3,56.1,29.74,WSW,237,0.0,0.0,86,0.00,,---,0.04,VWS V13.00,2013-08-04 20:28:00,
2013-08-04 12:33:00,61.2,56.6,29.74,SW,214,0.0,0.0,85,0.00,,---,0.04,VWS V13.00,2013-08-04 20:33:00,
2013-08-04 12:38:00,61.3,56.5,29.74,SW,220,0.0,0.0,84,0.00,,---,0.04,VWS V13.00,2013-08-04 20:38:00,
2013-08-04 12:43:00,61.3,56.5,29.74,SW,225,0.0,0.0,84,0.00,,---,0.04,VWS V13.00,2013-08-04 20:43:00,
2013-08-04 12:47:00,61.3,56.5,29.74,WNW,283,0.0,0.0,84,0.00,,---,0.04,VWS V13.00,2013-08-04 20:47:00,
2013-08-04 12:52:00,61.3,56.1,29.74,WSW,250,0.0,0.0,83,0.00,,---,0.04,VWS V13.00,2013-08-04 20:52:00,
2013-08-04 12:58:00,61.3,55.8,29.74,SW,229,0.0,0.0,82,0.00,,---,0.04,VWS V13.00,2013-08-04 20:58:00,
2013-08-04 13:03:00,61.5,55.6,29.74,SSW,212,0.0,0.0,81,0.00,,---,0.04,VWS V13.00,2013-08-04 21:03:00,
2013-08-04 13:08:00,61.5,55.6,29.74,SW,230,0.0,0.0,81,0.00,,---,0.04,VWS V13.00,2013-08-04 21:08:00,
2013-08-04 13:13:00,61.3,54.4,29.74,SW,215,0.0,0.0,78,0.00,,---,0.04,VWS V13.00,2013-08-04 21:13:00,
2013-08-04 13:18:00,61.3,54.4,29.74,WSW,248,0.0,0.0,78,0.00,,---,0.04,VWS V13.00,2013-08-04 21:18:00,
2013-08-04 13:23:00,61.7,54.1,29.74,WSW,244,0.0,0.0,76,0.00,,---,0.04,VWS V13.00,2013-08-04 21:23:00,
2013-08-04 13:27:00,61.7,53.3,29.74,SW,233,0.0,0.0,74,0.00,,---,0.04,VWS V13.00,2013-08-04 21:27:00,
2013-08-04 13:32:00,61.7,53.3,29.74,SW,214,0.0,0.0,74,0.00,,---,0.04,VWS V13.00,2013-08-04 21:32:00,
2013-08-04 13:37:00,61.7,53.3,29.74,WSW,253,0.0,0.0,74,0.00,,---,0.04,VWS V13.00,2013-08-04 21:37:00,
2013-08-04 13:42:00,62.1,52.9,29.74,SW,217,0.0,0.0,72,0.00,,---,0.04,VWS V13.00,2013-08-04 21:42:00,
2013-08-04 13:47:00,62.2,52.7,29.74,West,276,0.0,0.0,71,0.00,,---,0.04,VWS V13.00,2013-08-04 21:47:00,
2013-08-04 13:49:00,62.2,52.7,29.74,West,276,0.0,0.0,71,0.00,,---,0.04,VWS V13.00,2013-08-04 21:49:00,
2013-08-04 13:54:00,62.2,52.3,29.74,WSW,240,0.0,0.0,70,0.00,,---,0.04,VWS V13.00,2013-08-04 21:54:00,
2013-08-04 13:59:00,62.2,52.0,29.74,SW,216,0.0,0.0,69,0.00,,---,0.04,VWS V13.00,2013-08-04 21:59:00,
2013-08-04 14:04:00,62.2,51.6,29.74,SW,214,0.0,0.0,68,0.00,,---,0.04,VWS V13.00,2013-08-04 22:04:00,
2013-08-04 14:09:00,62.6,51.9,29.74,WSW,255,0.0,0.0,68,0.00,,---,0.04,VWS V13.00,2013-08-04 22:09:00,
2013-08-04 14:14:00,62.6,51.5,29.74,WSW,248,0.0,0.0,67,0.00,,---,0.04,VWS V13.00,2013-08-04 22:14:00,
2013-08-04 14:19:00,62.6,51.1,29.74,SW,226,0.0,0.0,66,0.00,,---,0.04,VWS V13.00,2013-08-04 22:19:00,
2013-08-04 14:24:00,62.6,51.1,29.74,SW,218,0.0,0.0,66,0.00,,---,0.04,VWS V13.00,2013-08-04 22:24:00,
2013-08-04 14:29:00,63.0,51.4,29.74,WSW,256,0.0,0.0,66,0.00,,---,0.04,VWS V13.00,2013-08-04 22:29:00,
2013-08-04 14:34:00,62.8,50.0,29.74,WSW,239,0.0,0.0,63,0.00,,---,0.04,VWS V13.00,2013-08-04 22:34:00,
2013-08-04 14:39:00,63.0,50.2,29.74,West,270,0.0,0.0,63,0.00,,---,0.04,VWS V13.00,2013-08-04 22:39:00,
2013-08-04 14:43:00,63.0,50.2,29.74,WNW,285,0.0,0.0,63,0.00,,---,0.04,VWS V13.00,2013-08-04 22:43:00,
2013-08-04 14:49:00,63.0,50.2,29.74,SSW,206,0.0,0.0,63,0.00,,---,0.04,VWS V13.00,2013-08-04 22:49:00,
2013-08-04 14:54:00,63.1,49.9,29.74,West,265,0.0,0.0,62,0.00,,---,0.04,VWS V13.00,2013-08-04 22:54:00,
2013-08-04 14:59:00,63.3,49.7,29.74,SW,220,0.0,0.0,61,0.00,,---,0.04,VWS V13.00,2013-08-04 22:59:00,
2013-08-04 15:04:00,63.3,49.2,29.74,SSW,196,0.0,0.0,60,0.00,,---,0.04,VWS V13.00,2013-08-04 23:04:00,
2013-08-04 15:08:00,63.3,48.8,29.74,SW,224,0.0,0.0,59,0.00,,---,0.04,VWS V13.00,2013-08-04 23:08:00,
2013-08-04 15:14:00,63.5,48.9,29.74,SW,218,0.0,0.0,59,0.00,,---,0.04,VWS V13.00,2013-08-04 23:14:00,
2013-08-04 15:19:00,63.5,48.9,29.74,SW,225,0.0,0.0,59,0.00,,---,0.04,VWS V13.00,2013-08-04 23:19:00,
2013-08-04 15:24:00,63.7,48.6,29.74,SW,224,0.0,0.0,58,0.00,,---,0.04,VWS V13.00,2013-08-04 23:24:00,
2013-08-04 15:28:00,63.9,49.3,29.74,West,281,0.0,0.0,59,0.00,,---,0.04,VWS V13.00,2013-08-04 23:28:00,
2013-08-04 15:33:00,64.2,49.2,29.74,West,265,0.0,0.0,58,0.00,,---,0.04,VWS V13.00,2013-08-04 23:33:00,
2013-08-04 15:38:00,64.2,49.2,29.74,WSW,237,0.0,0.0,58,0.00,,---,0.04,VWS V13.00,2013-08-04 23:38:00,
2013-08-04 15:44:00,63.9,47.9,29.74,SW,234,0.0,0.0,56,0.00,,---,0.04,VWS V13.00,2013-08-04 23:44:00,
2013-08-04 15:49:00,64.2,48.7,29.74,West,261,0.0,0.0,57,0.00,,---,0.04,VWS V13.00,2013-08-04 23:49:00,
2013-08-04 15:54:00,64.2,48.2,29.74,WSW,237,0.0,0.0,56,0.00,,---,0.04,VWS V13.00,2013-08-04 23:54:00,
2013-08-04 15:59:00,64.2,48.2,29.74,WSW,239,0.0,0.0,56,0.00,,---,0.04,VWS V13.00,2013-08-04 23:59:00,
2013-08-04 16:04:00,64.9,48.4,29.74,WSW,245,0.0,0.0,55,0.00,,---,0.04,VWS V13.00,2013-08-05 00:04:00,
2013-08-04 16:09:00,65.3,48.2,29.74,WSW,244,0.0,0.0,54,0.00,,---,0.04,VWS V13.00,2013-08-05 00:09:00,
2013-08-04 16:13:00,65.3,48.2,29.74,WSW,237,0.0,0.0,54,0.00,,---,0.04,VWS V13.00,2013-08-05 00:13:00,
2013-08-04 16:19:00,65.5,47.9,29.74,WSW,250,0.0,0.0,53,0.00,,---,0.04,VWS V13.00,2013-08-05 00:19:00,
2013-08-04 16:23:00,65.3,47.2,29.74,WSW,240,0.0,0.0,52,0.00,,---,0.04,VWS V13.00,2013-08-05 00:23:00,
2013-08-04 16:29:00,65.1,47.1,29.74,WSW,253,0.0,0.0,52,0.00,,---,0.04,VWS V13.00,2013-08-05 00:29:00,
2013-08-04 16:34:00,64.8,46.2,29.74,SW,232,0.0,0.0,51,0.00,,---,0.04,VWS V13.00,2013-08-05 00:34:00,
2013-08-04 16:39:00,64.6,46.1,29.74,SW,228,0.0,0.0,51,0.00,,---,0.04,VWS V13.00,2013-08-05 00:39:00,
2013-08-04 16:43:00,64.4,46.4,29.74,SW,225,0.0,0.0,52,0.00,,---,0.04,VWS V13.00,2013-08-05 00:43:00,
2013-08-04 16:49:00,64.4,46.4,29.74,WSW,244,0.0,0.0,52,0.00,,---,0.04,VWS V13.00,2013-08-05 00:49:00,
2013-08-04 16:54:00,64.2,46.2,29.74,WSW,246,0.0,0.0,52,0.00,,---,0.04,VWS V13.00,2013-08-05 00:54:00,
2013-08-04 16:59:00,64.2,46.8,29.74,WSW,241,0.0,0.0,53,0.00,,---,0.04,VWS V13.00,2013-08-05 00:59:00,
2013-08-04 17:04:00,64.2,46.8,29.74,SSW,210,0.0,0.0,53,0.00,,---,0.04,VWS V13.00,2013-08-05 01:04:00,
2013-08-04 17:09:00,64.2,46.8,29.74,SW,227,0.0,0.0,53,0.00,,---,0.04,VWS V13.00,2013-08-05 01:09:00,
2013-08-04 17:14:00,64.0,46.6,29.74,SW,226,0.0,0.0,53,0.00,,---,0.04,VWS V13.00,2013-08-05 01:14:00,
2013-08-04 17:19:00,64.0,47.1,29.74,WSW,246,0.0,0.0,54,0.00,,---,0.04,VWS V13.00,2013-08-05 01:19:00,
2013-08-04 17:24:00,63.9,46.4,29.74,SW,219,0.0,0.0,53,0.00,,---,0.04,VWS V13.00,2013-08-05 01:24:00,
2013-08-04 17:29:00,63.7,46.7,29.74,WSW,246,0.0,0.0,54,0.00,,---,0.04,VWS V13.00,2013-08-05 01:29:00,
2013-08-04 17:34:00,63.5,46.6,29.74,SW,222,0.0,0.0,54,0.00,,---,0.04,VWS V13.00,2013-08-05 01:34:00,
2013-08-04 17:39:00,63.3,46.4,29.74,WSW,246,0.0,0.0,54,0.00,,---,0.04,VWS V13.00,2013-08-05 01:39:00,
2013-08-04 17:44:00,63.1,46.2,29.74,SSW,203,0.0,0.0,54,0.00,,---,0.04,VWS V13.00,2013-08-05 01:44:00,
2013-08-04 17:48:00,63.0,46.6,29.74,WSW,242,0.0,0.0,55,0.00,,---,0.04,VWS V13.00,2013-08-05 01:48:00,
2013-08-04 17:54:00,62.8,46.4,29.74,SW,227,0.0,0.0,55,0.00,,---,0.04,VWS V13.00,2013-08-05 01:54:00,
2013-08-04 17:59:00,62.4,46.5,29.74,WSW,258,0.0,0.0,56,0.00,,---,0.04,VWS V13.00,2013-08-05 01:59:00,
2013-08-04 18:04:00,62.2,46.4,29.74,WSW,253,0.0,0.0,56,0.00,,---,0.04,VWS V13.00,2013-08-05 02:04:00,
2013-08-04 18:09:00,61.9,46.0,29.74,SSW,200,0.0,0.0,56,0.00,,---,0.04,VWS V13.00,2013-08-05 02:09:00,
2013-08-04 18:14:00,61.9,46.0,29.74,SSW,200,0.0,0.0,56,0.00,,---,0.04,VWS V13.00,2013-08-05 02:14:00,
2013-08-04 18:19:00,61.7,46.3,29.74,West,274,0.0,0.0,57,0.00,,---,0.04,VWS V13.00,2013-08-05 02:19:00,
2013-08-04 18:24:00,61.5,46.6,29.74,WSW,247,0.0,0.0,58,0.00,,---,0.04,VWS V13.00,2013-08-05 02:24:00,
2013-08-04 18:29:00,61.5,46.6,29.74,SSW,199,0.0,0.0,58,0.00,,---,0.04,VWS V13.00,2013-08-05 02:29:00,
2013-08-04 18:33:00,61.5,46.6,29.74,WSW,242,0.0,0.0,58,0.00,,---,0.04,VWS V13.00,2013-08-05 02:33:00,
2013-08-04 18:39:00,61.5,46.6,29.74,SSW,211,0.0,0.0,58,0.00,,---,0.04,VWS V13.00,2013-08-05 02:39:00,
2013-08-04 18:44:00,61.5,46.6,29.74,SSW,199,0.0,0.0,58,0.00,,---,0.04,VWS V13.00,2013-08-05 02:44:00,
2013-08-04 18:49:00,61.3,46.9,29.74,SW,221,0.0,0.0,59,0.00,,---,0.04,VWS V13.00,2013-08-05 02:49:00,
2013-08-04 18:54:00,61.3,46.9,29.74,SSW,196,0.0,0.0,59,0.00,,---,0.04,VWS V13.00,2013-08-05 02:54:00,
2013-08-04 18:59:00,61.3,46.9,29.74,SW,223,0.0,0.0,59,0.00,,---,0.04,VWS V13.00,2013-08-05 02:59:00,
2013-08-04 19:04:00,61.3,46.9,29.74,SSW,211,0.0,0.0,59,0.00,,---,0.04,VWS V13.00,2013-08-05 03:04:00,
2013-08-04 19:09:00,61.0,46.6,29.74,SSW,205,0.0,0.0,59,0.00,,---,0.04,VWS V13.00,2013-08-05 03:09:00,
2013-08-04 19:14:00,60.8,46.4,29.74,SW,227,0.0,0.0,59,0.00,,---,0.04,VWS V13.00,2013-08-05 03:14:00,
2013-08-04 19:19:00,60.6,46.7,29.74,SW,218,0.0,0.0,60,0.00,,---,0.04,VWS V13.00,2013-08-05 03:19:00,
2013-08-04 19:24:00,60.4,46.5,29.74,SW,217,0.0,0.0,60,0.00,,---,0.04,VWS V13.00,2013-08-05 03:24:00,
2013-08-04 19:29:00,60.3,46.3,29.74,WSW,238,0.0,0.0,60,0.00,,---,0.04,VWS V13.00,2013-08-05 03:29:00,
2013-08-04 19:34:00,59.9,46.4,29.74,SSW,205,0.0,0.0,61,0.00,,---,0.04,VWS V13.00,2013-08-05 03:34:00,
2013-08-04 19:39:00,59.7,46.7,29.74,WSW,252,0.0,0.0,62,0.00,,---,0.04,VWS V13.00,2013-08-05 03:39:00,
2013-08-04 19:44:00,59.5,46.5,29.74,SW,229,0.0,0.0,62,0.00,,---,0.04,VWS V13.00,2013-08-05 03:44:00,
2013-08-04 19:49:00,59.5,46.5,29.74,SW,231,0.0,0.0,62,0.00,,---,0.04,VWS V13.00,2013-08-05 03:49:00,
2013-08-04 19:54:00,59.4,46.8,29.74,SSW,207,0.0,0.0,63,0.00,,---,0.04,VWS V13.00,2013-08-05 03:54:00,
2013-08-04 19:59:00,59.4,46.8,29.74,SW,222,0.0,0.0,63,0.00,,---,0.04,VWS V13.00,2013-08-05 03:59:00,
2013-08-04 20:01:00,59.2,46.6,29.74,SW,229,0.0,0.0,63,0.00,,---,0.04,VWS V13.00,2013-08-05 04:01:00,
2013-08-04 20:06:00,59.2,46.6,29.74,SSW,204,0.0,0.0,63,0.00,,---,0.04,VWS V13.00,2013-08-05 04:06:00,
2013-08-04 20:11:00,59.2,46.6,29.74,West,261,0.0,0.0,63,0.00,,---,0.04,VWS V13.00,2013-08-05 04:11:00,
2013-08-04 20:16:00,58.8,46.7,29.74,WSW,247,0.0,0.0,64,0.00,,---,0.04,VWS V13.00,2013-08-05 04:16:00,
2013-08-04 20:21:00,58.8,47.1,29.74,WSW,243,0.0,0.0,65,0.00,,---,0.04,VWS V13.00,2013-08-05 04:21:00,
2013-08-04 20:26:00,58.6,46.9,29.74,West,264,0.0,0.0,65,0.00,,---,0.04,VWS V13.00,2013-08-05 04:26:00,
2013-08-04 20:31:00,58.5,46.8,29.74,SW,220,0.0,0.0,65,0.00,,---,0.04,VWS V13.00,2013-08-05 04:31:00,
2013-08-04 20:36:00,58.5,46.8,29.74,SW,223,0.0,0.0,65,0.00,,---,0.04,VWS V13.00,2013-08-05 04:36:00,
2013-08-04 20:41:00,58.3,47.0,29.74,SSW,209,0.0,0.0,66,0.00,,---,0.04,VWS V13.00,2013-08-05 04:41:00,
2013-08-04 20:46:00,58.1,47.2,29.74,SSW,211,0.0,0.0,67,0.00,,---,0.04,VWS V13.00,2013-08-05 04:46:00,
2013-08-04 20:51:00,58.1,47.2,29.74,SSW,210,0.0,0.0,67,0.00,,---,0.04,VWS V13.00,2013-08-05 04:51:00,
2013-08-04 20:57:00,57.9,47.0,29.74,SSW,194,0.0,0.0,67,0.00,,---,0.04,VWS V13.00,2013-08-05 04:57:00,
2013-08-04 21:02:00,57.9,47.0,29.74,West,277,0.0,0.0,67,0.00,,---,0.04,VWS V13.00,2013-08-05 05:02:00,
2013-08-04 21:07:00,57.9,47.0,29.74,SW,235,0.0,0.0,67,0.00,,---,0.04,VWS V13.00,2013-08-05 05:07:00,
2013-08-04 21:12:00,57.6,47.1,29.74,SW,225,0.0,0.0,68,0.00,,---,0.04,VWS V13.00,2013-08-05 05:12:00,
2013-08-04 21:17:00,57.6,47.1,29.74,West,267,0.0,0.0,68,0.00,,---,0.04,VWS V13.00,2013-08-05 05:17:00,
2013-08-04 21:22:00,57.4,46.9,29.74,West,263,0.0,0.0,68,0.00,,---,0.04,VWS V13.00,2013-08-05 05:22:00,
2013-08-04 21:27:00,57.2,46.8,29.74,WSW,247,0.0,0.0,68,0.00,,---,0.04,VWS V13.00,2013-08-05 05:27:00,
2013-08-04 21:32:00,57.2,47.1,29.74,SW,229,0.0,0.0,69,0.00,,---,0.04,VWS V13.00,2013-08-05 05:32:00,
2013-08-04 21:37:00,57.0,47.3,29.74,WSW,241,0.0,0.0,70,0.00,,---,0.04,VWS V13.00,2013-08-05 05:37:00,
2013-08-04 21:42:00,57.0,47.3,29.74,WSW,248,0.0,0.0,70,0.00,,---,0.04,VWS V13.00,2013-08-05 05:42:00,
2013-08-04 21:47:00,57.0,47.3,29.74,SW,235,0.0,0.0,70,0.00,,---,0.04,VWS V13.00,2013-08-05 05:47:00,
2013-08-04 21:52:00,57.0,47.3,29.74,SW,222,0.0,0.0,70,0.00,,---,0.04,VWS V13.00,2013-08-05 05:52:00,
2013-08-04 21:56:00,56.8,47.5,29.74,West,261,0.0,0.0,71,0.00,,---,0.04,VWS V13.00,2013-08-05 05:56:00,
2013-08-04 22:02:00,56.7,47.4,29.74,WSW,256,0.0,0.0,71,0.00,,---,0.04,VWS V13.00,2013-08-05 06:02:00,
2013-08-04 22:07:00,56.7,47.4,29.74,SSW,209,0.0,0.0,71,0.00,,---,0.04,VWS V13.00,2013-08-05 06:07:00,
2013-08-04 22:12:00,56.7,47.8,29.74,WSW,247,0.0,0.0,72,0.00,,---,0.04,VWS V13.00,2013-08-05 06:12:00,
2013-08-04 22:17:00,56.5,47.6,29.74,West,261,0.0,0.0,72,0.00,,---,0.04,VWS V13.00,2013-08-05 06:17:00,
2013-08-04 22:22:00,56.5,47.6,29.74,SW,227,0.0,0.0,72,0.00,,---,0.04,VWS V13.00,2013-08-05 06:22:00,
2013-08-04 22:27:00,56.3,47.4,29.74,WSW,249,0.0,0.0,72,0.00,,---,0.04,VWS V13.00,2013-08-05 06:27:00,
2013-08-04 22:32:00,56.3,47.4,29.74,SSW,211,0.0,0.0,72,0.00,,---,0.04,VWS V13.00,2013-08-05 06:32:00,
2013-08-04 22:37:00,56.3,47.4,29.74,West,262,0.0,0.0,72,0.00,,---,0.04,VWS V13.00,2013-08-05 06:37:00,
2013-08-04 22:42:00,56.1,47.6,29.74,SW,234,0.0,0.0,73,0.00,,---,0.04,VWS V13.00,2013-08-05 06:42:00,
2013-08-04 22:47:00,55.9,47.4,29.74,WSW,258,0.0,0.0,73,0.00,,---,0.04,VWS V13.00,2013-08-05 06:47:00,
2013-08-04 22:52:00,55.9,47.4,29.74,WSW,254,0.0,0.0,73,0.00,,---,0.04,VWS V13.00,2013-08-05 06:52:00,
2013-08-04 22:57:00,55.9,47.4,29.74,West,279,0.0,0.0,73,0.00,,---,0.04,VWS V13.00,2013-08-05 06:57:00,
2013-08-04 23:02:00,55.8,47.6,29.74,SW,222,0.0,0.0,74,0.00,,---,0.04,VWS V13.00,2013-08-05 07:02:00,
2013-08-04 23:07:00,55.8,47.6,29.74,WNW,284,0.0,0.0,74,0.00,,---,0.04,VWS V13.00,2013-08-05 07:07:00,
2013-08-04 23:12:00,55.8,47.6,29.74,West,270,0.0,0.0,74,0.00,,---,0.04,VWS V13.00,2013-08-05 07:12:00,
2013-08-04 23:17:00,55.8,47.6,29.74,SW,223,0.0,0.0,74,0.00,,---,0.04,VWS V13.00,2013-08-05 07:17:00,
2013-08-04 23:22:00,55.8,47.6,29.74,SW,226,0.0,0.0,74,0.00,,---,0.04,VWS V13.00,2013-08-05 07:22:00,
2013-08-04 23:27:00,55.8,47.6,29.74,SW,220,0.0,0.0,74,0.00,,---,0.04,VWS V13.00,2013-08-05 07:27:00,
2013-08-04 23:32:00,55.8,48.0,29.74,SW,230,0.0,0.0,75,0.00,,---,0.04,VWS V13.00,2013-08-05 07:32:00,
2013-08-04 23:37:00,55.9,48.1,29.74,SSW,195,0.0,0.0,75,0.00,,---,0.04,VWS V13.00,2013-08-05 07:37:00,
2013-08-04 23:42:00,55.8,48.0,29.74,WSW,239,0.0,0.0,75,0.00,,---,0.04,VWS V13.00,2013-08-05 07:42:00,
2013-08-04 23:47:00,55.8,48.0,29.74,WNW,299,0.0,0.0,75,0.00,,---,0.04,VWS V13.00,2013-08-05 07:47:00,
2013-08-04 23:52:00,55.8,48.3,29.74,WSW,243,0.0,0.0,76,0.00,,---,0.04,VWS V13.00,2013-08-05 07:52:00,
2013-08-04 23:57:00,55.6,48.2,29.74,WSW,237,0.0,0.0,76,0.00,,---,0.04,VWS V13.00,2013-08-05 07:57:00,